STARLINK-3134 (49434 NORAD) Tracking and Keplerian Element Data

This shows tracking and keplerian element data for the satellite.

Feedback or suggestion? Click here.




ElementValue
Catalog49434
NameSTARLINK-3134
Epoch Orbit479
Epoch Day339.91667824
Epoch Year2021
RAAN22.2462
Inclination53.2184
Eccentricity0.0002081
Argument of Perigee38.8449
Mean Anonmoly24.5997
Mean Motion15.73200371
Decay Rate0.00047444
L11 49434U 21104AC 21339.91667824 .00047444 00000+0 34053-3 0 9993
L22 49434 53.2184 22.2462 0002081 38.8449 24.5997 15.73200371 4799

Live tracking and technical data element details for STARLINK-3134 (NORAD 49434). STARLINK-3134 can be tracked NOW for your location showing map with azimuth and elevation plus other details from your city location.

Track the satellite on the map from your city or location and see movement details for azimuth, elevation, latitude, longitude, range, height, and movement on the map or in text.







IsCatalogInMostPopularTable: catalog: 49434, numindb: 1
Update: records affected: 1



GetName: 49434 STARLINK-3134

Hit Count: updated at: Wed, 08 Dec 2021 16:51:43 GMT